www.pogodaiklimat.ru

Погода и климат >> Архив погоды >> Россия >> город Москва >> Москва


АРХИВ ПОГОДЫ в Москве

Время (UTC), дата Ветер
(напр.,м/с)
 
Видим.   Явления Облачность Т
(С)
Тd
(С)
f
(%)
Тe
(С)
Тes
(С)
Комфортность P
(гПа)
Po
(гПа)
Тmin
(С)
Tmax
(С)
R
(мм)
R24
(мм)
S
(см)
12 13.02 СЗ 2 1000 м снег [диам. отлож. мокр. снега 0 мм] 10/10 300 м
[Frnb Ns]
-0.1 -1.1 93 -4 -4 по сезону 1006.7 987.1
15 13.02 СЗ 2 4000 м слаб. снег 10/5 600 м
[Sc As op]
-2.1 -3.7 89 -6 -6 по сезону 1010.7 990.9 10
18 13.02 СЗ 1 н/о {снег} 9/9 600 м
[Sc]
-3.1 -5.8 82 -5 -5 по сезону 1013.9 993.9 +0.5 3
21 13.02 З 1 н/о 10/10 600 м
[Sc]
-3.6 -6.2 82 -6 -6 по сезону 1016.4 996.3
00 14.02 СЗ 1 н/о 10/10 600 м
[Sc]
-4.4 -7.5 79 -7 -7 по сезону 1018.6 998.4
03 14.02 штиль 0 н/о дымка 9/0
[Ac trans]
-7.7 -8.8 92 -8 -8 по сезону 1020.7 1000.2 -7.7 0.0
06 14.02 штиль 0 4000 м дымка 9/3 1000 м
[Sc Ac trans]
-6.9 -7.6 95 -8 -8 по сезону 1022.1 1001.7 -8.1 38
09 14.02 З 1 10 км 4/0
[Ci fib]
-1.9 -7.1 68 -4 -1 по сезону 1023.5 1003.4
12 14.02 штиль 0 10 км 9/9 1000 м
[Sc]
-0.6 -5.0 72 -1 -1 тепло 1024.4 1004.4
15 14.02 З 1 н/о 10/10 1000 м
[Sc]
-1.3 -4.2 81 -3 -3 по сезону 1024.6 1004.6
18 14.02 З 1 н/о 9/6 1000 м
[Sc Ac trans]
-1.2 -3.8 82 -3 -3 тепло 1024.5 1004.4 -0.2
21 14.02 З 2 н/о дымка 10/10 600 м
[Sc]
-1.7 -3.2 89 -6 -6 по сезону 1024.2 1004.1
00 15.02 З 1 н/о дымка {снег} 10/10 200 м
[Frnb]
-1.3 -2.3 93 -4 -4 тепло 1022.7 1002.7
03 15.02 З 2-10
{10}
н/о дымка 10/10 600 м
[Sc]
-0.6 -2.5 87 -4 -4 тепло 1018.0 998.1 -1.8 0.0
06 15.02 З 2
{10}
10 км 10/10 300 м
[Frnb]
+0.2 -2.1 85 -3 -3 тепло 1014.9 995.1 -1.8 0.0 37
09 15.02 З 2 10 км в посл. час снег 10/10 600 м
[Sc]
+1.6 -0.8 84 -2 -2 тепло 1013.4 993.7
12 15.02 З 2 10 км {снег} 10/10 600 м
[Sc]
+2.3 -0.3 83 -1 -1 тепло 1012.3 992.8
15 15.02 СЗ 2
{11}
10 км 9/9 600 м
[Sc]
+2.9 -0.6 78 0 0 тепло 1012.1 992.6 0.0
18 15.02 З 1 н/о н/о +2.5 -0.1 83 +1 +1 тепло 1012.3 992.7 +3.0
21 15.02 З 1 н/о 10/10 600 м
[Sc]
+2.6 -0.8 78 +1 +1 тепло 1011.9 992.3
00 16.02 З 2 н/о 10/10 300 м
[Sc]
+1.4 -1.5 81 -2 -2 тепло 1011.9 992.2
03 16.02 СЗ 2 н/о н/о +1.6 -1.1 82 -2 -2 тепло 1012.5 992.9 +1.2
06 16.02 СЗ 3 10 км 9/9 600 м
[Sc]
+1.9 -1.1 80 -2 -2 тепло 1013.8 994.2 +1.2 35
09 16.02 СЗ 2 10 км 8/8 600 м
[Sc]
+3.4 -1.9 68 +1 +1 тепло 1014.6 995.1
12 16.02 З 1 10 км 3/3 600 м
[Sc Ci fib]
+3.8 -2.1 65 +3 +4 тепло 1014.0 994.5
15 16.02 штиль 0 10 км 4/0
[Ci fib]
+1.4 -1.7 80 0 0 тепло 1012.3 992.7
18 16.02 З 1 н/о 10/10 600 м
[Sc]
+2.0 -0.2 85 0 0 тепло 1010.4 990.8 +4.2
21 16.02 З 1 н/о 6/6 600 м
[Sc]
+1.2 -1.1 85 -1 -1 тепло 1007.3 987.8
00 17.02 З 1 н/о 3/0
[Ci fib]
+0.2 -2.3 83 -2 -2 тепло 1003.4 983.9
03 17.02 З 2 н/о 9/9 600 м
[Sc]
+0.8 -2.7 77 -3 -3 тепло 1000.0 980.6 -0.0
06 17.02 З 2 10 км 9/9 600 м
[Sc]
+2.3 -1.7 75 -1 -1 тепло 998.7 979.4 -0.0 33
09 17.02 СЗ 3-10
{10}
10 км 3/3 600 м
[Sc]
+4.4 -3.2 58 +1 +3 тепло 998.3 979.2
12 17.02 СЗ 3-10
{11}
10 км 9/9 600 м
[Sc]
+5.1 -6.6 43 +2 +3 тепло 997.3 978.2
15 17.02 СЗ 4-11
{14}
10 км в посл. час ливневой снег 9/9 600 м
[Sc]
+1.9 -5.8 57 -3 -3 по сезону 999.9 980.5 0.0
18 17.02 СЗ 3
{13}
н/о в посл. час ливневой снег 9/9 600 м
[Sc]
+0.1 -3.7 76 -4 -4 по сезону 1002.0 982.5 +5.3 0.1
21 17.02 СЗ 4-10
{16}
н/о 6/6 600 м
[Sc]
-0.2 -8.0 56 -5 -5 по сезону 1004.4 984.8
00 18.02 СЗ 4-13
{15}
н/о 9/9 600 м
[Sc]
-0.6 -7.7 59 -6 -6 по сезону 1007.5 987.8
03 18.02 С 3
{16}
н/о 3/3 600 м
[Sc]
-1.7 -10.1 53 -6 -6 по сезону 1010.9 991.0 -1.7 0.1
06 18.02 С 5-11
{12}
10 км ясно -2.9 -10.4 56 -9 -9 по сезону 1014.7 994.7 -3.0 30
09 18.02 С 5
{14}
10 км 3/3 600 м
[Cu hum]
-1.9 -11.4 48 -8 -7 по сезону 1017.6 997.6
12 18.02 СЗ 3
{12}
10 км ясно -1.4 -11.1 48 -6 -4 по сезону 1018.8 998.8
15 18.02 СЗ 1
{12}
10 км ясно -2.6 -11.4 51 -4 -4 по сезону 1020.6 1000.4
18 18.02 С 1
{14}
н/о ясно -4.2 -12.4 53 -6 -6 по сезону 1022.3 1002.0 -1.3
21 18.02 штиль 0 н/о ясно -6.3 -13.0 59 -7 -7 по сезону 1023.2 1002.7
00 19.02 штиль 0 н/о ясно -9.8 -13.2 76 -10 -10 по сезону 1023.4 1002.7
03 19.02 штиль 0 н/о ясно -8.2 -11.8 75 -9 -9 по сезону 1021.7 1001.1 -10.3
06 19.02 ЮЗ 1 10 км 6/0
[Ac trans]
-5.1 -12.8 55 -7 -6 по сезону 1019.3 999.0 -10.3 29
09 19.02 ЮЗ 1 10 км ясно +0.9 -12.8 35 0 +4 тепло 1015.8 996.1
12 19.02 З 2 10 км ясно +2.2 -12.8 32 0 +2 тепло 1013.4 993.8
15 19.02 З 1 10 км 4/0
[Ac trans Ci fib]
+0.7 -10.9 41 -0 -0 тепло 1012.2 992.5
18 19.02 ЮЗ 1 н/о 6/0
[Ac trans]
-0.8 -9.7 51 -2 -2 тепло 1010.5 990.7 +2.5
21 19.02 ЮЗ 1 н/о 8/0
[Ac trans]
-0.7 -9.3 52 -2 -2 тепло 1008.0 988.3
00 20.02 Ю 1 н/о ясно -1.1 -6.3 68 -3 -3 тепло 1005.0 985.3
03 20.02 ЮЗ 1 н/о 10/0
[Ac As]
-0.4 -4.2 75 -2 -2 тепло 1002.5 982.9 -1.6
06 20.02 ЮЗ 2 10 км 10/8 600 м
[Sc Ac As]
+0.9 -2.2 80 -2 -2 тепло 1000.9 981.5 -1.6 29

 

Местоположение метеостанции Москва (город Москва, Россия): широта 55.83 долгота 37.62 высота над уровнем моря 156 м.

В архиве по умолчанию представлена погода в Москве за последнюю неделю. Архивные данные за месяц целиком и за предыдущие месяцы, начиная с января 2011 года, Вы можете получить, выбрав интересующий диапазон дат из раскрывающегося списка и нажав кнопку "Ввод!".


*Определитесь, кто Вы:
робот инопланетянин человек

Внимание! Время в таблицах - всемирное. Для получения местного времени необходимо прибавить поправку, которая равна 3 ч.

Смотрите также архив погоды в соседних городах и на ближайших метеорологических станциях:

Погода в Москве (Балчуг) (город Москва, Россия) (9 км)
Погода в Москве (Тушино) (город Москва, Россия) (12 км)
Погода в Долгопрудном (Московская область, Россия) (13 км)
Погода в Москве (Строгино) (город Москва, Россия) (14 км)
Погода в Красногорске (Московская область, Россия) (18 км)
Погода в Шереметьево (Московская область, Россия) (20 км)
Погода в Немчиновке (город Москва, Россия) (21 км)
Погода в Железнодорожном АМС (Московская область, Россия) (23 км)
Погода в Луговой (Московская область, Россия) (26 км)
Погода в Пушкино (Московская область, Россия) (26 км)

Пояснения к столбцам:

Ветер - указаны скорость ветра в м/с - средняя за 10 мин, порывы в срок и между сроками (в фигурных скобках) и направление, откуда дует ветер: С - северный, СВ - северо-восточный, В - восточный, ЮВ - юго-восточный, Ю - южный, ЮЗ - юго-западный, З - западный, СЗ - северо-западный.
Видимость - горизонтальная дальность видимости в метрах или километрах. При видимости от 1 до 10 км при отсутствии осадков обычно наблюдается дымка, при ухудшении видимости до 1 км и менее - туман. В сухую погоду видимость может ухудшаться дымом, пылью или мглою.
Явления - указаны атмосферные явления, наблюдавшиеся в срок или в последний час перед сроком; фигурными скобками обозначены явления, наблюдавшиеся между сроками (за 1-3 часа до срока); квадратными скобками обозначены град или гололедные отложения с указанием их диаметра в мм.
Облачность - указаны через наклонную черту общая и нижняя облачность в баллах и высота нижней границы облаков в метрах; квадратными скобками обозначены формы облаков: Ci - перистые, Cs - перисто-слоистые, Cc - перисто-кучевые, Ac - высококучевые, As - высокослоистые, Sc - слоисто-кучевые, Ns - слоисто-дождевые, Cu - кучевые, Cb - кучево-дождевые. Подробнее классификацию облаков см. в Атласе облаков (PDF).
T - Температура воздуха - температура, измеренная на высоте 2 м над землей.
Td - Температура точки росы - температура, при понижении до которой содержащийся в воздухе водяной пар достигнет насыщения.
f - Относительная влажность воздуха - влажноcть воздуха, измеренная на высоте 2 м над землей.
Te - Эффективная температура - температура, которую ощущает одетый по сезону человек в тени. Характеристика душности погоды. При расчете учитывается влияние влажности воздуха и скорости ветра на теплоощущения человека.
Tes - Эффективная температура на солнце - температура, которую ощущает человек, с поправкой на солнечный нагрев. Характеристика знойности погоды. Зависит от высоты солнца над горизонтом, облачности и скорости ветра. Ночью, в пасмурную погоду, а также при ветре 12 м/с и более поправка равна нулю.
P - Атмосферное давление - приведенное к уровню моря атмосферное давление.
Po - Атмосферное давление - измеренное на уровне метеостанции атмосферное давление.
Tmin - Минимальная температура - минимум температуры воздуха на высоте 2 м над землей.
Tmax - Максимальная температура - максимум температуры воздуха на высоте 2 м над землей.
R - Количество осадков - Количество выпавших осадков за период времени, мм. При наведении курсора мыши на число - период времени, за который выпало указанное количество осадков.
R24 - Количество осадков - Количество выпавших осадков за 24 часа, мм.
S - Снежный покров - Высота снежного покрова, см. При наведении курсора мыши на число - состояние снежного покрова и степень покрытия местности в баллах.